ONEWEB-0157 (48055 NORAD) Tracking and Keplerian Element Data

This shows tracking and keplerian element data for the satellite.

Feedback or suggestion? Click here.




ElementValue
Catalog48055
NameONEWEB-0157
Epoch Orbit189
Epoch Day173.91668981
Epoch Year2021
RAAN322.3587
Inclination87.7589
Eccentricity0.0006179
Argument of Perigee327.3765
Mean Anonmoly238.1829
Mean Motion13.76747128
Decay Rate1.5E-07
L11 48055U 21025P 21173.91668981 .00000015 00000-0 00000-0 0 9990
L22 48055 87.7589 322.3587 0006179 327.3765 238.1829 13.76747128 1891

Live tracking and technical data element details for ONEWEB-0157 (NORAD 48055). ONEWEB-0157 can be tracked NOW for your location showing map with azimuth and elevation plus other details from your city location.

Track the satellite on the map from your city or location and see movement details for azimuth, elevation, latitude, longitude, range, height, and movement on the map or in text.







IsCatalogInMostPopularTable: catalog: 48055, numindb: 44
Update: records affected: 1



GetName: 48055 ONEWEB-0157

Hit Count: updated at: Thu, 24 Jun 2021 03:34:57 GMT